{"data":{"norad_id":66845,"intl_designator":"2025-280AA","name":"STARLINK-36068","alt_names":[],"object_type":"PAYLOAD","status":"ACTIVE","operator":null,"country":"US","launch_date":"2025-12-02","launch_site_code":"AFWTR","launch_vehicle":null,"mission":null,"orbit_class":"UNKNOWN","rcs_meters":null,"size_class":null,"mass_kg":null,"dimensions":null,"purposes":["comms"],"wikipedia_slug":null,"has_3d_model":false,"image_url":null,"decayed_at":null,"tle_current":{"epoch":"2026-09-20T06:10:32.303712Z","epoch_age_seconds":105443,"freshness":"FRESH","line1":"1 66845U 25280AA  26263.25731833  .00004022  00000+0  34473-3 0  9998","line2":"2 66845  70.0007 203.7414 0002989 251.9254 108.1580 14.98322100 45228","mean_motion":14.983221,"eccentricity":0.0002989,"inclination_deg":70.0007,"raan_deg":203.7414,"arg_perigee_deg":251.9254,"mean_anomaly_deg":108.158,"bstar":0.00034473,"rev_number":4522,"period_min":96.107505856051,"perigee_km":570.00290119279,"apogee_km":574.15774110737,"semimajor_km":6950.2173211501,"source":"CELESTRAK","updated_at":"2026-09-21T09:00:36.024722Z"}}}